Location: Vassar Physics Lab
(41.6843°N, 73.8954°W)
Time: 05:40:25
(UTC-05:00)

CZ-4B DEB - Visible Passes

Search period start: 16 January 2017 00:00
Search period end: 26 January 2017 00:00
Orbit: 841 x 863 km, 98.9° (Epoch: 15 January)

Date Brightness Start Highest point End Pass type
(mag) Time Alt. Az. Time Alt. Az. Time Alt. Az.
23 Jan 6.6 04:31:47 10° N 04:31:52 10° N 04:31:52 10° N visible
24 Jan 6.6 04:20:14 10° N 04:20:23 11° N 04:20:23 11° N visible
25 Jan 6.7 04:08:44 10° N 04:08:54 11° N 04:08:54 11° N visible
